EW7631 Weather Reports


time (UTC)temp
C
wind
direction
speed
KPH
gust
KPH
rain 1hr
cm
rain 24hr
cm
rain mn
cm
humidity
%
barometer
mb
20260506044546 16 265 3.2 9.7 0.00 0.51 0.38 52 1015.5
20260506043524 16 303 3.2 6.4 0.00 0.51 0.38 51 1015.4
20260506042526 17 286 4.8 8.0 0.00 0.51 0.38 49 1015.2
20260506041527 17 276 6.4 11.3 0.00 0.51 0.38 47 1015.1
20260506040529 17 277 6.4 12.9 0.00 0.51 0.38 45 1014.9
20260506035532 17 288 6.4 11.3 0.00 0.51 0.38 42 1014.8
20260506034521 17 275 4.8 8.0 0.00 0.51 0.38 40 1014.7
20260506033534 17 268 6.4 9.7 0.00 0.51 0.38 39 1014.5
20260506032524 18 280 4.8 9.7 0.00 0.51 0.38 38 1014.4
20260506031547 18 277 4.8 8.0 0.00 0.51 0.38 37 1014.2
20260506030537 18 277 4.8 8.0 0.00 0.51 0.38 37 1014.1
20260506025529 18 295 6.4 11.3 0.00 0.51 0.38 36 1014.0
20260506024530 18 272 8.0 14.5 0.00 0.51 0.38 36 1013.8
20260506023521 18 281 6.4 12.9 0.00 0.51 0.38 36 1013.6
20260506022544 19 282 9.7 17.7 0.00 0.51 0.38 36 1013.4
20260506021525 19 280 9.7 12.9 0.00 0.51 0.38 35 1013.1
20260506020531 20 271 8.0 14.5 0.00 0.51 0.38 34 1012.9
20260506015528 20 279 9.7 14.5 0.00 0.51 0.38 32 1012.8
20260506014529 21 262 9.7 17.7 0.00 0.51 0.38 28 1012.7
20260506013542 21 265 12.9 22.5 0.00 0.51 0.38 28 1012.6
20260506012532 22 268 8.0 12.9 0.00 0.51 0.38 28 1012.5
20260506011527 22 251 6.4 14.5 0.00 0.51 0.38 31 1012.4
20260506010524 22 238 6.4 14.5 0.00 0.51 0.38 31 1012.3
20260506005525 22 224 6.4 17.7 0.00 0.51 0.38 30 1012.2
20260506004529 22 274 6.4 9.7 0.00 0.51 0.38 30 1012.1
20260506003532 23 213 6.4 14.5 0.00 0.51 0.38 28 1012.2
20260506002531 23 249 4.8 14.5 0.00 0.51 0.38 26 1012.1
20260506001541 23 265 11.3 20.9 0.00 0.51 0.38 25 1012.1
20260506000525 23 226 6.4 14.5 0.00 0.51 0.38 26 1012.0
20260505235528 24 224 4.8 11.3 0.00 0.51 0.38 24 1011.9
20260505234528 25 269 9.7 27.4 0.00 0.51 0.38 24 1011.9
20260505233527 25 242 6.4 16.1 0.00 0.51 0.38 24 1011.8
20260505232551 25 270 12.9 24.1 0.00 0.51 0.38 23 1011.8
20260505231532 25 247 9.7 22.5 0.00 0.51 0.38 23 1011.8
20260505230524 25 186 8.0 16.1 0.00 0.51 0.38 22 1011.8
20260505225523 25 303 12.9 24.1 0.00 0.51 0.38 25 1011.8
20260505224524 25 234 6.4 16.1 0.00 0.51 0.38 26 1011.9
20260505223528 25 214 8.0 25.7 0.00 0.51 0.38 27 1011.9
20260505222527 25 230 9.7 17.7 0.00 0.51 0.38 28 1012.0
20260505221550 25 299 11.3 25.7 0.00 0.51 0.38 28 1012.1
20260505220530 25 237 12.9 25.7 0.00 0.51 0.38 28 1012.1
20260505215523 23 233 8.0 16.1 0.00 0.51 0.38 31 1012.2
20260505214526 25 241 9.7 25.7 0.00 0.51 0.38 31 1012.3
20260505213545 25 249 8.0 20.9 0.00 0.51 0.38 31 1012.4
20260505212526 24 268 8.0 17.7 0.00 0.51 0.38 32 1012.5
20260505211527 25 230 9.7 19.3 0.00 0.51 0.38 32 1012.5
20260505210531 24 195 6.4 14.5 0.00 0.51 0.38 32 1012.7
20260505205530 25 210 8.0 20.9 0.00 0.51 0.38 31 1012.8
20260505204521 26 220 4.8 11.3 0.00 0.51 0.38 32 1012.9
20260505203523 25 231 8.0 17.7 0.00 0.51 0.38 33 1012.9
20260505202524 24 204 6.4 9.7 0.00 0.51 0.38 35 1013.1
20260505201527 24 238 8.0 20.9 0.00 0.51 0.38 37 1013.1
20260505200527 23 231 9.7 16.1 0.00 0.51 0.38 38 1013.3
20260505195531 24 276 9.7 22.5 0.00 0.51 0.38 36 1013.3
20260505194531 24 213 4.8 9.7 0.00 0.51 0.38 34 1013.3
20260505193534 25 235 6.4 17.7 0.00 0.51 0.38 34 1013.2
20260505192523 24 254 6.4 19.3 0.00 0.51 0.38 40 1013.4
20260505191524 22 306 6.4 11.3 0.00 0.51 0.38 47 1013.4
20260505190528 22 283 6.4 17.7 0.00 0.51 0.38 46 1013.6
20260505185530 22 304 8.0 14.5 0.00 0.51 0.38 47 1013.8
20260505184531 23 298 4.8 11.3 0.00 0.51 0.38 47 1013.9
20260505183552 22 272 6.4 11.3 0.00 0.51 0.38 48 1014.0
20260505182521 22 285 6.4 16.1 0.00 0.51 0.38 48 1014.1
20260505181523 21 315 1.6 6.4 0.00 0.51 0.38 50 1014.3
20260505180527 22 3 1.6 4.8 0.00 0.51 0.38 50 1014.4
20260505175528 21 306 4.8 9.7 0.00 0.51 0.38 52 1014.5
20260505174610 21 327 3.2 4.8 0.00 0.51 0.38 52 1014.5
20260505173529 21 311 3.2 6.4 0.00 0.51 0.38 52 1014.5
20260505172530 20 302 4.8 6.4 0.00 0.51 0.38 55 1014.7
20260505171523 21 288 3.2 8.0 0.00 0.51 0.38 52 1014.5
20260505170547 21 4 1.6 3.2 0.00 0.51 0.38 51 1014.6
20260505165525 21 102 1.6 8.0 0.00 0.51 0.38 56 1014.5
20260505164526 19 166 3.2 6.4 0.00 0.51 0.38 61 1014.7
20260505163527 17 285 4.8 9.7 0.00 0.51 0.38 65 1014.7
20260505162531 17 273 4.8 9.7 0.00 0.51 0.38 67 1014.7
20260505161531 17 283 3.2 4.8 0.00 0.51 0.38 67 1014.7
20260505160542 17 277 3.2 8.0 0.00 0.51 0.38 68 1014.6
20260505152527 16 308 3.2 4.8 0.00 0.51 0.38 79 1014.6
20260505151551 16 307 1.6 3.2 0.00 0.51 0.38 80 1014.5
20260505150552 16 337 1.6 4.8 0.00 0.51 0.38 81 1014.5
20260505140528 15 50 0.0 3.2 0.00 0.51 0.38 83 1014.0
20260505124530 13 59 1.6 3.2 0.00 0.51 0.38 90 1013.2
20260505123706 13 39 0.0 3.2 0.00 0.51 0.38 89 1013.2
20260505122529 13 57 1.6 4.8 0.03 0.51 0.38 88 1013.1
20260505121526 13 44 0.0 1.6 0.05 0.51 0.38 88 1013.3
20260505120530 13 68 3.2 4.8 0.05 0.51 0.38 89 1013.0
20260505115611 13 66 3.2 4.8 0.05 0.51 0.38 88 1012.8
20260505114530 13 64 1.6 3.2 0.05 0.51 0.38 88 1012.8
20260505113532 13 79 3.2 8.0 0.05 0.51 0.38 89 1012.7
20260505112541 13 72 3.2 6.4 0.03 0.48 0.36 88 1013.1
20260505111528 13 64 3.2 6.4 0.00 0.46 0.33 89 1013.3
20260505110524 13 85 1.6 4.8 0.00 0.46 0.33 90 1013.3
20260505101521 13 73 3.2 9.7 0.05 0.46 0.33 92 1014.1
20260505100525 13 102 1.6 6.4 0.05 0.46 0.33 92 1014.2
20260505095525 13 62 1.6 6.4 0.08 0.46 0.33 93 1014.4
20260505094527 13 95 1.6 3.2 0.10 0.46 0.33 93 1014.5
20260505093528 13 80 3.2 6.4 0.08 0.43 0.30 93 1014.5
20260505092531 13 79 1.6 3.2 0.08 0.41 0.28 93 1015.2
20260505091531 13 100 1.6 4.8 0.10 0.41 0.28 92 1015.1
20260505090543 13 123 3.2 4.8 0.13 0.41 0.28 92 1015.6
20260505085544 13 146 3.2 6.4 0.13 0.38 0.25 91 1016.0
20260505084524 13 126 1.6 3.2 0.13 0.36 0.23 91 1016.1
20260505083531 13 164 3.2 6.4 0.15 0.36 0.23 91 1016.5
20260505082527 13 0.0 0.0 0.15 0.33 0.20 90 1016.6
20260505081551 14 0.0 1.6 0.15 0.30 0.18 90 1016.9
20260505080614 14 204 0.0 4.8 0.13 0.28 0.15 89 1017.2
20260505075521 14 0.0 0.0 0.13 0.25 0.13 89 1017.3
20260505074535 14 0.0 0.0 0.13 0.23 0.10 88 1017.3
20260505073524 14 208 0.0 1.6 0.13 0.20 0.08 87 1017.3
20260505072528 14 148 0.0 3.2 0.10 0.18 0.05 86 1017.1
20260505071529 14 160 0.0 3.2 0.10 0.15 0.03 87 1017.2
20260505070529 14 0.0 0.0 0.10 0.15 0.03 87 1017.2
20260505065532 14 0.0 0.0 0.08 0.13 0.13 85 1017.1
20260505064544 14 0.0 0.0 0.05 0.10 0.10 84 1016.8
20260505063523 14 0.0 0.0 0.05 0.08 0.08 83 1016.7
20260505062527 14 0.0 0.0 0.08 0.08 0.08 82 1016.7
20260505061526 14 0.0 0.0 0.05 0.05 0.05 81 1016.8
20260505060529 15 0.0 0.0 0.05 0.05 0.05 80 1017.0
20260505055533 15 0.0 0.0 0.05 0.05 0.05 80 1016.8
20260505054541 15 0.0 0.0 0.05 0.05 0.05 77 1016.5
20260505053522 15 0.0 0.0 0.03 0.03 0.03 76 1016.6
20260505052523 15 0.0 0.0 0.00 0.00 0.00 74 1016.8
20260505051534 14 0.0 0.0 0.00 0.00 0.00 72 1017.1
20260505050526 14 0.0 1.6 0.00 0.00 0.00 73 1017.1